Back to catalog

QPS-SAR-5 TSUKUYOMI-I

AliveScienceVLEO
NORAD 58578·PAYLOAD·🇯🇵 Japan

Launched Dec 15, 2023 from Rocket Lab Launch Complex 1

Loading…

Next Passes (next 24 hours)

TLE

FreshSource: Space-Track

Epoch: Sep 14, 2026, 09:28 UTC

1 58578U 23196A   26257.39467382  .00010112  00000-0  40953-3 0  9997
2 58578  42.0099 227.1382 0026615 167.5742 192.5754 15.24379608151854

Track QPS-SAR-5 TSUKUYOMI-I in real time with AllMySat

Download on the App Store